Location: Boise
(43.6140°N, 116.2030°W)
Time: 06:14:54
(UTC-06:00)

Daily predictions for brighter satellites

Satellite Brightness Start Highest point End
(mag) Time Altitude Azimuth Time Altitude Azimuth Time Altitude Azimuth
NOAA 12 4.3 19:53:45 10° SE 19:58:50 53° ENE 20:03:58 10° N
Atlas Centaur 2 4.4 19:52:30 10° WSW 19:59:35 30° S 20:06:23 10° SE
SAR-Lupe-1 4.1 19:59:44 10° SSE 20:03:15 60° ENE 20:06:46 10° N
ATLAS CENTAUR R/B 1.7 19:59:12 10° NW 20:03:27 70° WSW 20:07:20 10° SSE
Aureole 2 Rocket 3.3 19:59:54 10° S 20:04:05 45° ESE 20:08:12 10° NNE
Cosmos 1766 3.6 20:02:02 10° SSE 20:05:47 42° E 20:09:34 10° NNE
Cosmos 2237 Rocket 2.6 20:01:18 10° SSW 20:06:58 71° WNW 20:12:39 10° NNE
HJ-1C 4.2 20:04:44 10° SE 20:07:43 30° ENE 20:10:43 10° N
Okean 3 Rocket 3.6 20:04:15 10° N 20:08:48 77° E 20:13:21 10° SSE
Resurs 01 Rocket 2.1 20:07:04 10° SE 20:11:13 41° ENE 20:15:24 10° N
Cosmos 1624 Rocket 4.1 20:07:04 10° NNW 20:12:19 85° WSW 20:17:30 10° SSE
Resurs 1-3 4.3 20:08:46 10° SE 20:12:41 33° ENE 20:16:36 10° N
ATLAS 5 CENTAUR R/B 2.6 20:10:15 10° S 20:14:25 31° ESE 20:18:53 10° NE
Meteor 1-29 4.0 20:15:18 10° NE 20:18:18 26° E 20:21:16 10° SSE
Cosmos 192 4.4 20:20:15 10° S 20:25:04 54° ESE 20:29:55 10° NNE
SL-16 R/B 2.2 20:20:42 10° SSW 20:26:22 76° ESE 20:32:04 10° NNE
Cosmos 1953 2.9 20:23:30 10° SSE 20:27:07 34° E 20:30:44 10° NNE
USA 215 3.3 20:21:21 10° NE 20:27:48 58° SE 20:34:11 10° SSW
ATLAS CENTAUR R/B 3.7 20:28:14 10° SSW 20:33:17 69° SE 20:49:34 10° NE
Spot 1 4.2 20:29:08 10° SSE 20:33:55 84° ENE 20:38:25 10° NNW
Helios 1A 3.0 20:30:29 10° SSE 20:34:37 63° ENE 20:38:46 10° N
Cosmos 1805 3.5 20:33:50 10° SSE 20:37:34 44° E 20:41:20 10° NNE
Cosmos 1378 3.5 20:34:22 10° NNW 20:38:04 66° W 20:41:46 10° S
H-2A R/B 3.6 20:36:26 16° ESE 20:38:55 31° ENE 20:42:21 10° N
SeaSat 1 3.6 20:35:38 10° NE 20:39:24 22° ESE 20:43:09 10° SSE
COSMO-SKYMED 1 4.4 20:35:38 10° N 20:39:35 35° WNW 20:43:32 10° SW
Cosmos 1544 3.9 20:36:21 10° SSE 20:39:38 30° E 20:42:57 10° NNE
Cosmos 1072 Rocket 4.4 20:34:12 10° S 20:40:18 88° E 20:46:27 10° N
Nadezhda 4 Rocket 4.3 20:34:28 10° N 20:40:31 46° ENE 20:46:28 10° SSE
Meteor 1-28 Rocket 3.6 20:37:16 10° N 20:40:58 65° WNW 20:44:38 10° SSW
CZ-4B DEB 3.4 20:39:32 18° SE 20:41:30 37° ENE 20:44:34 10° N
Cosmos 1452 Rocket 3.5 20:36:25 10° NNW 20:41:41 70° ENE 20:46:54 10° SSE
METEOR-M 4.2 20:40:25 10° SSE 20:45:46 81° WSW 20:51:09 10° NNW
Cosmos 2219 Rocket 4.5 20:41:37 10° WSW 20:46:12 25° NW 20:50:51 10° N
Cosmos 1092 Rocket 4.5 20:40:46 10° N 20:46:31 38° ENE 20:51:18 14° SE
ATLAS 3B R/B 4.5 20:39:57 10° W 20:46:38 33° NW 20:53:08 10° NNE
ALOS 2.4 20:43:39 10° SSE 20:48:11 54° ENE 20:52:45 10° N
OAO 3 Rocket 4.4 20:44:45 10° SW 20:48:51 29° S 20:51:10 19° SE
Cosmos 2278 Rocket 4.5 20:45:17 10° NW 20:49:48 25° WSW 20:54:19 10° SSW
FREGAT/IRIS 4.5 20:51:39 10° SSW 20:54:29 33° W 20:57:20 10° NNW
FENGYUN 3A 3.6 20:49:30 10° SSE 20:54:47 63° ENE 21:00:08 10° N
Cosmos 724 4.3 20:53:06 10° SSW 20:58:52 58° ESE 21:04:50 10° NE
Cosmos 1470 3.7 20:59:51 28° ENE 20:59:51 28° ENE 21:02:36 10° NNE
Meteor 2-12 Rocket 4.4 20:53:50 10° S 20:59:57 73° E 21:06:06 10° NNE
Cosmos 1766 Rocket 3.8 20:56:24 10° NNW 21:00:47 69° W 21:05:04 10° S
NOSS 3-2 (A) 3.7 20:57:14 10° SW 21:03:20 74° NW 21:10:03 10° NE
Cosmos 1420 Rocket 4.0 20:59:25 10° NNW 21:04:41 63° ENE 21:07:54 24° SE
USA 186 3.8 21:06:54 11° N 21:06:54 11° N 21:07:02 10° N
H-2A R/B 4.3 21:08:56 12° NE 21:08:56 12° NE 21:09:47 10° NNE
CZ-4C R/B 4.0 21:02:59 10° W 21:07:53 32° NW 21:13:24 10° NNE
Cosmos 1758 3.5 21:04:36 10° SSW 21:08:40 75° W 21:12:47 10° N
Cosmos 2369 Rocket 2.8 21:03:49 10° N 21:09:04 37° ENE 21:10:43 31° E
Cosmos 1603 3.6 21:07:53 10° SSW 21:13:34 70° ESE 21:19:19 10° NNE
Cosmos 2034 Rocket 4.2 21:08:35 10° SSW 21:14:49 75° W 21:21:11 10° N
Cosmos 1943 Rocket 3.5 21:11:58 10° N 21:16:11 21° NE 21:16:46 21° ENE
Helios 1B rocket 3.4 21:13:51 10° N 21:17:48 48° WNW 21:21:45 10° SW
CZ-4B DEB 4.4 21:19:34 60° SE 21:20:08 78° ENE 21:23:45 10° N
Cosmos 1269 Rocket 3.9 21:15:44 10° S 21:20:57 68° ESE 21:26:13 10° NNE
Cosmos-2242 3.6 21:18:53 10° SSW 21:23:11 60° W 21:27:33 10° N
ASTEX 1 3.3 21:18:49 10° N 21:23:46 86° E 21:28:39 10° S
Cosmos 1048 Rocket 3.9 21:19:52 10° S 21:25:06 63° ESE 21:30:18 10° NNE
Cosmos 1674 2.5 21:22:30 10° N 21:26:25 83° E 21:26:55 66° SSE
SL-8 R/B 4.1 21:23:37 10° SW 21:27:44 42° SSE 21:27:44 42° SSE
Cosmos 1346 4.2 21:29:16 10° NNW 21:32:06 40° W 21:32:16 39° WSW
Envisat 3.5 21:33:30 41° ENE 21:33:30 41° ENE 21:38:04 10° N
SJ-11-01 4.4 21:33:29 53° ENE 21:33:29 53° ENE 21:38:01 10° N
Cosmos 1939 Rocket 4.3 21:35:38 27° NNE 21:35:38 27° NNE 21:37:50 10° N
Cosmos 1842 Rocket 3.4 21:32:03 27° S 21:34:23 85° E 21:38:45 10° N
Cosmos 1500 Rocket 3.5 21:30:32 10° N 21:34:59 85° W 21:36:15 46° S
Meteor 1-11 4.5 21:31:40 10° N 21:37:16 47° ENE 21:37:32 47° E
Cosmos 2151 3.6 21:34:12 10° N 21:37:16 41° NNE 21:37:16 41° NNE
CENTAUR R/B 2.6 21:34:27 10° S 21:40:15 49° ESE 21:40:43 48° ESE
NOSS 3-2 (C) 4.2 21:35:11 10° WSW 21:41:13 54° NW 21:47:50 10° NNE
Cosmos 1627 Rocket 4.4 21:40:17 10° N 21:46:28 69° E 21:47:58 51° SE
Resurs 01 Rocket 4.2 21:44:34 10° SW 21:47:51 20° W 21:51:10 10° NW
Exosat Rocket 4.5 21:45:54 10° NNW 21:52:24 67° ENE 21:55:00 46° SE
ATLAS 5 CENTAUR R/B 3.1 21:54:22 10° WSW 21:58:57 40° NW 22:03:56 10° NNE
USA 215 3.9 22:05:01 13° NE 22:10:44 51° NNW 22:16:59 10° WSW
ERS-1 Rocket 3.2 22:14:55 67° WNW 22:14:55 67° WNW 22:19:28 10° NNW
GP-B 4.2 22:11:55 10° NNW 22:16:07 43° W 22:16:19 42° W
Cosmos 1110 Rocket 4.4 22:10:53 10° NNW 22:15:10 59° N 22:15:10 59° N
SeaSat 1 3.1 22:12:21 10° NNE 22:17:11 54° WNW 22:21:59 10° SW
BREEZE-M DEB (TANK) 4.3 22:17:36 10° W 22:26:33 51° NNW 22:26:54 50° N
Cosmos 1655 Rocket 4.0 22:20:30 10° NNW 22:26:43 74° W 22:26:59 73° WSW
Cosmos 2279 Rocket 4.1 22:28:27 66° N 22:28:27 66° N 22:33:44 10° N
H-2A R/B 4.3 22:46:04 21° NNW 22:46:04 21° NNW 22:47:38 10° NNW
Cosmos 2369 Rocket 3.5 22:47:57 10° NW 22:52:32 34° W 22:52:32 34° W
Cosmos 1943 Rocket 3.4 22:54:54 10° NNW 22:58:18 37° NW 22:58:18 37° NW
H-2A R/B 4.4 23:14:42 16° N 23:14:42 16° N 23:15:44 10° N
CENTAUR R/B 4.1 23:25:14 10° WSW 23:33:45 28° N 23:37:38 10° NNE
